OPS 4682 DEB, 17093

Orbit data source: Space-Track

OPS 4682 DEB, 17093 is space debris in LEO originally from a launch on Sat, 03 Apr 1965 UTC launched from the Air Force Western Test Range (AFWTR). Debris objects in space refer to the collection of defunct objects orbiting the Earth. Examples of debris include non-operational satellites, rocket bodies, and fragments generated from explosions, collisions, or faulty payload assembly.

Loading next visibility...
Identifier
17093, 1965-027U
Orbit
LEO
Country
Flag of USUS
Related business
Manufacturer
Unknown
Mission
Spacecraft
Bus & Motor
Unknown
Mass
Unknown
Launch date (UTC)
1965-04-03 (61 years ago)
Launch vehicle
Unknown
Launch site
Air Force Western Test Range (AFWTR)
Object type
Payload
Rocket body
Debris
Shape & HBR
Unknown shape, 0.1 m
Radar Cross Section
Medium (>0.1 m² and <1 m²)

Expand to show TLE details & history
Last TLE update: 1 day ago

TLE from 1 day ago
0 OPS 4682 DEB
1 17093U 65027U   26207.19289647  .00000170  00000-0  55544-3 0  9997
2 17093  90.2427   9.4203 0023709 285.5833 254.3488 12.98177359952034
Epoch: 2026-07-26T04:37Z
TLE epoch observation values (Epoch: 2026-07-26T04:37:46.255Z)
Latitude
0.21849°
Longitude
176.08415°
Altitude
1,277.021 km
Speed
7.215 km/s
True Right ascension
12h 37m 41s
True Declination
0° 13' 02"
Sunlit
Object was in daylight at epoch
Visualization orbit readout
Latitude
Unknown
Longitude
Unknown
Altitude
Unknown
Speed
Unknown
Apparent Right ascension
Unknown
Apparent Declination
Unknown
Sunlit
N/A
Visualization observer readout
Local Sidereal Time
20:29:55
Azimuth
Unknown
Elevation
Unknown
Doppler factor
Unknown
Orbital elements
Apogee altitude
1,284.49 km
Perigee altitude
1,248.242 km
Semi-major axis
7,644.503 km
Eccentricity
0.00237
Inclination
90.2427°
RAAN
9.4203°
Arg. of periapsis
285.5833°
True anomaly
254.0874°
Mean anomaly
254.3488°
Eccentric anomaly
254.21808°
Mean motion
3.24728 °/min
Orbital period
110.86 mins
BSTAR
0.00055544
Loading maneuver chart data...
Computing Atmospheric mass density...
Loading historical data...
Loading historical data...
Loading historical data...
Loading historical data...
Loading historical data...
Loading historical data...
Loading historical data...

Documentation

Showing up to 5 results
|